[[{"header":{"parameterUnit":"m.s-1","parameterCategory":1,"la1":30.2991,"la2":30.254,"lo1":-89.0895,"lo2":-89.0444,"dy":0.0017,"dx":0.0017,"nx":28,"ny":28,"refTime":"2025-08-18T21:00:00:Z","depth":0,"parameterNumber":2,"parameterNumberName":"U-component_of_WINDS"},"data":[0,0,0,0,0,0,0,0,0,0,0,0,0,0,0,0,0,0,0,0,0,0,0,0,0,0,0,0,0,0,0,0,0,0,0,0,0,0,0,0,0,0,0,0,0,0,0,0,0,0,0,0,0,0,0,0,0,0,0.0744,0.0744,0,0.0776,0.0777,0.0777,0.08,0.08,0.0801,0.0801,0.0836,0.0837,0.0837,0,0,0,0,0,0,0,0,0,0,0,0,0,0.0703,0.0704,0.0744,0.0744,0.0744,0.0776,0.0777,0.0777,0.08,0.08,0.0801,0.0801,0.0836,0.0837,0.0837,0,0,0,0,0,0,0,0,0,0,0,0,0,0.0727,0.0704,0.0744,0.076,0.0762,0.0776,0.0777,0.0777,0.08,0.08,0.0801,0.0801,0.0835,0.0836,0.0838,0.0839,0,0,0.0841,0.0842,0,0,0,0,0,0,0,0,0.0725,0.0728,0.0757,0.0759,0.0761,0.0784,0.0775,0.0798,0.08,0.0786,0.0801,0.0801,0.0819,0.0821,0.0827,0.0841,0.0842,0.0841,0.0842,0.0842,0.0843,0,0,0,0,0,0,0,0.0724,0.0727,0.0757,0.0757,0.076,0.0766,0.077,0.078,0.08,0.0787,0.0789,0.0792,0.082,0.0826,0.0828,0.0843,0.0841,0.0842,0.0843,0.0843,0.0859,0.0859,0,0,0,0,0,0,0.0719,0.0725,0.0756,0.0758,0.0743,0.0766,0.0771,0.0777,0.08,0.0804,0.0792,0.0793,0.0823,0.0826,0.0829,0.0832,0.0842,0.0843,0.0844,0.0859,0.0859,0.0859,0,0,0,0,0,0,0.0718,0.0722,0.0754,0.0742,0.0747,0.0767,0.0773,0.0777,0.0783,0.0804,0.0808,0.0794,0.0824,0.0827,0.0836,0.0833,0.0844,0.0845,0.086,0.0859,0.0859,0.0838,0,0,0,0,0,0,0.0717,0.0721,0.0722,0.0742,0.0747,0.076,0.0773,0.0777,0.0785,0.0787,0.0807,0.0811,0.0824,0.0834,0.0837,0.0835,0.0846,0.086,0.086,0.0859,0.0839,0.0837,0.0835,0,0,0,0,0,0.0715,0.0715,0.0721,0.0725,0.0748,0.076,0.0763,0.0779,0.0784,0.0785,0.0798,0.081,0.0833,0.0835,0.0839,0.0837,0.086,0.086,0.0859,0.084,0.0837,0.0835,0,0,0,0,0,0,0.0695,0.0718,0.0725,0.0731,0.0743,0.0764,0.0765,0.0776,0.0787,0.0788,0.0807,0.0812,0.0818,0.0829,0.083,0.0839,0.0848,0.0848,0.0832,0.083,0.0828,0.0825,0.0847,0,0,0,0,0,0.069,0.0698,0.0718,0.0721,0.0727,0.0745,0.0751,0.0762,0.0775,0.0781,0.0795,0.0808,0.0818,0.0825,0.0836,0.0841,0.0845,0.0841,0.0839,0.0837,0.0837,0.084,0.0838,0.0857,0.0857,0.0857,0,0,0.0683,0.0696,0.07,0.0717,0.0728,0.0736,0.0749,0.0757,0.0763,0.0782,0.0791,0.0802,0.0818,0.0824,0.0828,0.0833,0.0833,0.0837,0.0835,0.0836,0.0839,0.0837,0.0836,0.0856,0.0857,0.0857,0,0,0.0672,0.0683,0.0686,0.0697,0.0712,0.0724,0.0725,0.0744,0.0752,0.0761,0.0775,0.0783,0.08,0.0811,0.0819,0.0811,0.0822,0.0814,0.0804,0.0807,0.0805,0.0804,0.0801,0.0799,0.0814,0.0814,0.0814,0,0.066,0.0671,0.0687,0.0693,0.0701,0.0718,0.0722,0.0731,0.075,0.0755,0.076,0.0782,0.0794,0.0803,0.0801,0.0807,0.0809,0.0812,0.0804,0.0803,0.0802,0.0799,0.0798,0.0813,0.0813,0.0813,0.0813,0,0.0656,0.0663,0.0664,0.0681,0.0689,0.0694,0.0711,0.0717,0.0727,0.0738,0.0747,0.0762,0.0776,0.0779,0.0789,0.0789,0.0792,0.08,0.081,0.0799,0.0796,0.0796,0.0811,0.0812,0.0812,0.0812,0,0,0.0632,0.0657,0.0658,0.0665,0.0684,0.069,0.0696,0.0709,0.0713,0.0726,0.0731,0.0745,0.0753,0.0762,0.0773,0.0775,0.0768,0.0784,0.0784,0.078,0.0768,0.0761,0.076,0.0775,0.0775,0.0775,0.0767,0,0.0624,0.0635,0.0649,0.0655,0.0663,0.0679,0.0684,0.0696,0.0707,0.0715,0.0728,0.0737,0.0747,0.0752,0.0755,0.0768,0.0766,0.0769,0.078,0.0781,0.0775,0.0759,0.0752,0.0743,0.0766,0.0766,0.0766,0,0.0616,0.0626,0.0633,0.065,0.0654,0.0658,0.067,0.0678,0.0692,0.07,0.0709,0.0721,0.0729,0.0737,0.0747,0.0749,0.0755,0.0762,0.0762,0.0763,0.0772,0.0759,0.0741,0.0739,0.0765,0.0765,0.0765,0,0.0597,0.0613,0.0619,0.0625,0.0646,0.0648,0.0657,0.0671,0.0678,0.0689,0.0694,0.0706,0.0712,0.0722,0.0737,0.0742,0.0745,0.0755,0.0752,0.0751,0.0752,0.0751,0.0733,0.0756,0.0756,0.0756,0.0756,0,0.0586,0.0589,0.0611,0.0615,0.0619,0.0635,0.0639,0.065,0.0662,0.0668,0.0684,0.0689,0.0709,0.0717,0.0729,0.0735,0.0738,0.0745,0.0748,0.0743,0.0742,0.0747,0.0747,0.0756,0.0756,0.0756,0.0756,0,0.0566,0.0581,0.0588,0.0607,0.0612,0.0614,0.063,0.0634,0.0646,0.0653,0.0656,0.0674,0.0684,0.07,0.0715,0.0724,0.0727,0.0733,0.0722,0.0724,0.072,0.0719,0.0703,0.0702,0.0726,0.0726,0.0725,0,0.0558,0.056,0.0579,0.0584,0.0592,0.06,0.0606,0.0623,0.0629,0.0645,0.0647,0.0658,0.0668,0.0683,0.0698,0.0709,0.0715,0.0708,0.0717,0.0711,0.0714,0.0713,0.0713,0.0706,0.0706,0.0706,0.0705,0,0.0541,0.0548,0.0557,0.0567,0.0575,0.0584,0.0595,0.0598,0.0617,0.0623,0.0633,0.064,0.0655,0.0666,0.0679,0.0689,0.07,0.0703,0.0702,0.0697,0.0691,0.0693,0.0716,0.0703,0.0703,0.0703,0.0704,0.0704,0.0526,0.0529,0.0543,0.0551,0.0561,0.057,0.0575,0.0587,0.0595,0.0608,0.0617,0.0626,0.064,0.0659,0.0668,0.0676,0.0681,0.068,0.068,0.068,0.0678,0.069,0.0678,0.0678,0.0678,0.0678,0.0679,0,0.051,0.0519,0.0527,0.0541,0.0548,0.0557,0.0569,0.0574,0.0582,0.0594,0.0603,0.0614,0.0624,0.0639,0.0651,0.0654,0.0659,0.0656,0.0656,0.0658,0.0673,0.0671,0.0652,0.0652,0.0652,0.0652,0.0652,0.0652,0.0502,0.0507,0.0516,0.0526,0.0535,0.0544,0.055,0.0558,0.0568,0.0579,0.0587,0.0597,0.061,0.0623,0.0633,0.0637,0.064,0.0635,0.0641,0.0655,0.0657,0.0659,0.0658,0.0636,0.0636,0.0626,0.0626,0.0626]},{"header":{"parameterUnit":"m.s-1","parameterCategory":1,"la1":30.2991,"la2":30.254,"lo1":-89.0895,"lo2":-89.0444,"dy":0.0017,"dx":0.0017,"nx":28,"ny":28,"refTime":"2025-08-18T21:00:00:Z","depth":0,"parameterNumber":3,"parameterNumberName":"V-component_of_WINDS"},"data":[0,0,0,0,0,0,0,0,0,0,0,0,0,0,0,0,0,0,0,0,0,0,0,0,0,0,0,0,0,0,0,0,0,0,0,0,0,0,0,0,0,0,0,0,0,0,0,0,0,0,0,0,0,0,0,0,0,0,1.8314,1.8314,0,1.8337,1.8337,1.8338,1.8376,1.8377,1.8378,1.8379,1.8399,1.8399,1.8399,0,0,0,0,0,0,0,0,0,0,0,0,0,1.8298,1.8298,1.8314,1.8314,1.8314,1.8337,1.8338,1.8338,1.8376,1.8377,1.8378,1.8379,1.8399,1.8399,1.8399,0,0,0,0,0,0,0,0,0,0,0,0,0,1.8311,1.8298,1.8314,1.8336,1.8339,1.8337,1.8338,1.8338,1.8376,1.8377,1.8378,1.8379,1.8399,1.8399,1.8399,1.8376,0,0,1.8398,1.8398,0,0,0,0,0,0,0,0,1.831,1.8312,1.8333,1.8335,1.8337,1.8355,1.8339,1.8351,1.8376,1.8362,1.8379,1.838,1.8383,1.8385,1.8386,1.8377,1.8378,1.8398,1.8398,1.8398,1.8398,0,0,0,0,0,0,0,1.8309,1.8311,1.8323,1.8333,1.8336,1.8344,1.8347,1.8342,1.8366,1.8363,1.8366,1.8368,1.8385,1.8387,1.8387,1.8378,1.8398,1.8398,1.8398,1.8398,1.8348,1.8347,0,0,0,0,0,0,1.8306,1.831,1.8322,1.8324,1.8326,1.8343,1.8347,1.8348,1.8366,1.837,1.8367,1.837,1.8386,1.8387,1.8388,1.836,1.8398,1.8398,1.8398,1.8349,1.8348,1.8346,0,0,0,0,0,0,1.8305,1.8306,1.8321,1.8317,1.832,1.8342,1.8344,1.8348,1.835,1.837,1.8374,1.8365,1.8387,1.8388,1.8378,1.8362,1.8398,1.8398,1.835,1.8349,1.8347,1.8306,0,0,0,0,0,0,1.8304,1.8306,1.8299,1.8317,1.832,1.8312,1.8343,1.8348,1.835,1.8354,1.8368,1.8372,1.8388,1.8378,1.8378,1.8362,1.8398,1.8352,1.835,1.8347,1.8309,1.8303,1.8298,0,0,0,0,0,1.8304,1.8286,1.8298,1.8299,1.8312,1.8311,1.8313,1.8333,1.8349,1.834,1.8353,1.8371,1.8364,1.8377,1.8377,1.8361,1.8353,1.835,1.8348,1.8311,1.8304,1.8298,0,0,0,0,0,0,1.8265,1.8289,1.8303,1.8291,1.8299,1.8318,1.8309,1.8325,1.8328,1.8331,1.8355,1.8358,1.8344,1.8352,1.8366,1.8338,1.8361,1.8358,1.8333,1.8327,1.8321,1.8319,1.8397,0,0,0,0,0,1.8255,1.8254,1.8275,1.8262,1.8265,1.8286,1.8287,1.8301,1.831,1.8313,1.8325,1.8332,1.8331,1.8329,1.833,1.831,1.8312,1.8299,1.8293,1.8289,1.8285,1.8273,1.8266,1.8337,1.8337,1.8337,0,0,1.8234,1.8247,1.8245,1.8254,1.8262,1.8259,1.8289,1.8284,1.8281,1.8313,1.8303,1.8312,1.8321,1.8305,1.8299,1.8311,1.8266,1.8285,1.8281,1.8281,1.8269,1.8262,1.8256,1.8335,1.8336,1.8336,0,0,1.8194,1.8205,1.8195,1.8202,1.8213,1.8227,1.8224,1.8241,1.8248,1.8239,1.8261,1.8258,1.8256,1.826,1.8262,1.8222,1.8238,1.8221,1.8192,1.8179,1.8174,1.8169,1.8152,1.8146,1.8218,1.8218,1.8218,0,1.8166,1.8164,1.8187,1.818,1.8183,1.8211,1.8199,1.8205,1.8215,1.8215,1.8229,1.8226,1.8234,1.8219,1.8208,1.821,1.8206,1.8219,1.8173,1.8168,1.8164,1.8148,1.8142,1.8216,1.8216,1.8216,1.8217,0,1.8128,1.8125,1.8115,1.8124,1.8126,1.8117,1.8136,1.8135,1.8149,1.816,1.8149,1.816,1.8162,1.8159,1.8173,1.8145,1.8152,1.8169,1.8192,1.8154,1.8139,1.8134,1.8213,1.8213,1.8214,1.8215,0,0,1.8064,1.8086,1.8081,1.8085,1.8099,1.8096,1.8087,1.809,1.8086,1.8092,1.8084,1.8081,1.8096,1.8098,1.8113,1.8102,1.8066,1.812,1.8121,1.8107,1.8032,1.8017,1.801,1.8077,1.8076,1.8075,1.803,0,1.8025,1.8012,1.8031,1.8013,1.8009,1.8036,1.8027,1.8034,1.8044,1.8041,1.8052,1.8048,1.807,1.8071,1.8062,1.8072,1.805,1.8076,1.8067,1.8066,1.8062,1.8002,1.7987,1.7944,1.8025,1.8024,1.8023,0,1.7978,1.7982,1.7963,1.7976,1.7975,1.7967,1.7969,1.7967,1.7974,1.7982,1.7984,1.8001,1.799,1.8014,1.7999,1.8016,1.8013,1.8018,1.8016,1.8015,1.8041,1.7996,1.7931,1.7923,1.8015,1.8015,1.8016,0,1.793,1.793,1.7918,1.7921,1.7937,1.793,1.7936,1.7944,1.7944,1.7945,1.7944,1.7945,1.7944,1.7943,1.7959,1.7975,1.794,1.7966,1.7944,1.7943,1.7934,1.7934,1.7865,1.7936,1.7936,1.7937,1.7937,0,1.7883,1.787,1.7896,1.7889,1.7874,1.7896,1.788,1.7889,1.7895,1.7888,1.7911,1.7904,1.7926,1.792,1.7933,1.7916,1.7917,1.7921,1.7924,1.7918,1.7917,1.7915,1.7917,1.7935,1.7935,1.7936,1.7936,0,1.7826,1.7844,1.7832,1.7848,1.7851,1.7839,1.7852,1.7844,1.7856,1.7846,1.7845,1.7862,1.7856,1.7872,1.7869,1.7877,1.7853,1.7862,1.785,1.7852,1.7828,1.7829,1.7753,1.7743,1.7823,1.7823,1.7822,0,1.7795,1.7785,1.7799,1.7796,1.7801,1.7797,1.7796,1.7816,1.7814,1.782,1.7811,1.7808,1.7805,1.7795,1.7806,1.7802,1.781,1.7784,1.781,1.7802,1.7806,1.7806,1.7803,1.7777,1.7777,1.7776,1.7775,0,1.7735,1.7744,1.7742,1.7743,1.7741,1.7743,1.7746,1.7742,1.7764,1.7759,1.7754,1.7752,1.7749,1.7743,1.7743,1.7747,1.7763,1.7767,1.7761,1.7753,1.7746,1.7747,1.7833,1.7768,1.7769,1.7769,1.777,1.777,1.7688,1.7679,1.7687,1.7684,1.7688,1.769,1.7683,1.7693,1.7689,1.7688,1.7701,1.7692,1.7697,1.7697,1.7699,1.7691,1.7703,1.7696,1.7693,1.769,1.7685,1.7749,1.7692,1.7692,1.7692,1.7692,1.7693,0,1.7627,1.7633,1.763,1.7633,1.763,1.7647,1.7651,1.7646,1.7639,1.7642,1.764,1.7632,1.7626,1.7637,1.7633,1.7624,1.7631,1.7622,1.7621,1.7621,1.7676,1.768,1.7616,1.7616,1.7616,1.7616,1.7616,1.7616,1.7595,1.758,1.759,1.7577,1.7583,1.7575,1.7575,1.7576,1.7579,1.7569,1.7565,1.7572,1.7578,1.7574,1.7569,1.7572,1.7568,1.7555,1.756,1.7611,1.7618,1.7625,1.7629,1.7555,1.7555,1.7506,1.7506,1.7505]}]]